This demonstration page uses our WeatherBlox Daily Observations layout. Learn more.

Left ArrowRight Arrow

38.20091, -84.87328

Hourly Observations for July 14, 2022

Temp ( °F °C ) Dew Point ( °F °C ) Humidity (%) Winds ( mph kmh ) Pressure ( in mb ) Visibility ( mi km ) Precip ( " mm )
12:53 am 00:53 Clear 69 20.6 64 17.8 84 84 SW 3 6 30.01 1016 10 16 0.00 0.00
1:53 am 01:53 Clear 69 20.6 63 17.2 81 81 WSW 5 7 30.02 1017 10 16 0.00 0.00
2:53 am 02:53 Clear 68 20 64 17.8 87 87 Calm 30.02 1017 10 16 0.00 0.00
3:53 am 03:53 Mostly Cloudy 66 18.9 63 17.2 90 90 Calm 30.02 1017 10 16 0.00 0.00
4:53 am 04:53 Mostly Clear 66 18.9 63 17.2 90 90 Calm 30.02 1017 10 16 0.00 0.00
5:53 am 05:53 Partly Cloudy 66 18.9 63 17.2 90 90 Calm 30.03 1017 10 16 0.00 0.00
6:53 am 06:53 Cloudy 67 19.4 64 17.8 91 91 Calm 30.05 1018 10 16 0.00 0.00
7:53 am 07:53 Mostly Sunny 70 21.1 66 18.9 87 87 Calm 30.07 1018 10 16 0.00 0.00
8:53 am 08:53 Mostly Cloudy 73 22.8 66 18.9 79 79 Calm 30.09 1019 10 16 0.00 0.00
9:53 am 09:53 Sunny 77 25 67 19.4 71 71 Calm 30.10 1019 10 16 0.00 0.00
10:53 am 10:53 Sunny 81 27.2 67 19.4 62 62 NW 5 7 30.10 1019 10 16 0.00 0.00
11:53 am 11:53 Mostly Sunny 82 27.8 65 18.3 56 56 NW 7 11 30.11 1020 10 16 0.00 0.00
12:53 pm 12:53 Mostly Cloudy 84 28.9 63 17.2 49 49 VRB 7 11 30.11 1020 10 16 0.00 0.00
1:53 pm 13:53 Mostly Cloudy 83 28.3 62 16.7 49 49 WNW 8 13 30.11 1020 10 16 0.00 0.00
2:53 pm 14:53 Partly Cloudy 86 30 62 16.7 45 45 undefined N/A 30.09 1019 10 16 0.00 0.00
3:53 pm 15:53 Mostly Sunny 88 31.1 59 15 38 38 WNW 8 13 30.09 1019 10 16 0.00 0.00
4:53 pm 16:53 Mostly Sunny 87 30.6 60 15.6 40 40 NNW 9 15 30.08 1019 10 16 0.00 0.00
5:53 pm 17:53 Sunny 86 30 58 14.4 39 39 NNW 7 11 30.07 1018 10 16 0.00 0.00
6:53 pm 18:53 Sunny 86 30 59 15 40 40 N 8 13 30.06 1018 10 16 0.00 0.00
7:53 pm 19:53 Sunny 84 28.9 61 16.1 46 46 NNW 5 7 30.06 1018 10 16 0.00 0.00
8:53 pm 20:53 Sunny 80 26.7 63 17.2 56 56 NNW 3 6 30.08 1019 10 16 0.00 0.00
9:53 pm 21:53 Clear 72 22.2 64 17.8 76 76 Calm 30.09 1019 10 16 0.00 0.00
10:53 pm 22:53 Clear 70 21.1 64 17.8 82 82 Calm 30.11 1020 10 16 0.00 0.00
11:53 pm 23:53 Clear 68 20 63 17.2 84 84 Calm 30.12 1020 10 16 0.00 0.00

Powered by AerisWeather